CW3742 Weather Reports


Display with metric or nautical units.
time (UTC)temp
F
wind
direction
speed
MPH
gust
MPH
rain 1hr
in
rain 24hr
in
rain mn
in
humidity
%
barometer
mb
20260905163017 90 293 6.0 12.0 0.00 0.00 0.00 67 996.0
20260905160017 90 293 5.0 10.0 0.00 0.00 0.00 67 995.8
20260905153037 90 293 3.0 10.0 0.00 0.00 0.00 66 995.4
20260905150017 89 248 2.0 7.0 0.00 0.00 0.00 68 995.4
20260905143017 87 248 2.0 4.0 0.00 0.00 0.00 72 995.2
20260905140018 85 293 3.0 7.0 0.00 0.00 0.00 74 995.3
20260905133017 84 270 1.0 7.0 0.00 0.00 0.00 75 995.0
20260905130018 81 270 1.0 4.0 0.00 0.00 0.00 80 994.8
20260905123017 79 293 1.0 5.0 0.00 0.00 0.00 81 994.9
20260905120018 78 225 1.0 3.0 0.00 0.00 0.00 83 994.6
20260905113017 78 225 1.0 3.0 0.00 0.00 0.00 82 994.1
20260905110017 78 225 2.0 5.0 0.00 0.00 0.00 82 994.0
20260905103017 79 225 3.0 5.0 0.00 0.00 0.00 82 994.0
20260905100018 78 225 1.0 4.0 0.00 0.00 0.00 82 994.1
20260905093017 79 225 1.0 3.0 0.00 0.00 0.00 82 994.2
20260905090019 80 225 2.0 3.0 0.00 0.00 0.00 80 994.2
20260905083019 80 225 1.0 2.0 0.00 0.00 0.00 80 994.3
20260905080017 80 225 2.0 5.0 0.00 0.00 0.00 80 994.3
20260905073018 80 225 5.0 7.0 0.00 0.00 0.00 82 994.2
20260905070017 81 225 5.0 6.0 0.00 0.00 0.00 78 994.4
20260905063018 82 158 3.0 5.0 0.00 0.00 0.00 79 994.7
20260905060018 79 158 1.0 4.0 0.00 0.00 0.00 86 994.7
20260905053038 80 158 3.0 6.0 0.00 0.00 0.00 84 994.4
20260905050018 80 158 5.0 7.0 0.00 0.00 0.00 85 994.1
20260905043017 81 158 4.0 6.0 0.00 0.00 0.00 83 994.0
20260905040018 82 180 4.0 6.0 0.00 0.00 0.00 83 994.1
20260905033017 82 180 3.0 5.0 0.00 0.00 0.00 81 994.2
20260905030038 83 225 4.0 6.0 0.00 0.00 0.00 79 993.9
20260905023018 85 180 4.0 5.0 0.00 0.00 0.00 76 993.6
20260905020018 86 203 2.0 4.0 0.00 0.00 0.00 72 993.8
20260905013037 88 203 2.0 4.0 0.00 0.00 0.00 70 993.7
20260905010017 88 203 2.0 3.0 0.00 0.00 0.00 69 993.6
20260905003017 89 203 2.0 3.0 0.00 0.00 0.00 68 993.6
20260905000018 90 203 2.0 7.0 0.00 0.00 0.00 67 993.4
20260904233017 92 225 5.0 10.0 0.00 0.00 0.00 63 993.2
20260904230019 93 203 7.0 12.0 0.00 0.00 0.00 61 993.1
20260904223018 93 203 8.0 16.0 0.00 0.00 0.00 59 993.0
20260904220017 95 203 7.0 14.0 0.00 0.00 0.00 59 993.2
20260904213018 95 203 8.0 15.0 0.00 0.00 0.00 58 993.6
20260904210037 95 203 9.0 16.0 0.00 0.00 0.00 56 993.7
20260904203019 95 203 9.0 16.0 0.00 0.00 0.00 57 993.8
20260904200018 95 203 8.0 17.0 0.00 0.00 0.00 57 994.2
20260904193018 95 203 8.0 15.0 0.00 0.00 0.00 56 994.6
20260904190016 94 225 8.0 15.0 0.00 0.00 0.00 59 994.8
20260904183018 93 225 8.0 18.0 0.00 0.00 0.00 58 995.1
20260904180018 93 225 8.0 14.0 0.00 0.00 0.00 59 995.6
20260904173018 93 225 6.0 14.0 0.00 0.00 0.00 60 995.8
20260904170018 92 248 4.0 12.0 0.00 0.00 0.00 62 995.8